Theta_e
304 303 302 302 302 303 304 306 307 305 300 300 301 299 300 299 298 298 297 297 298 298 298 299 301 301 301 301 302 304 307 306 303 302 301 300 299 299 298 298 299 299 299 298
304 304 302 302 302 303 304 307 304 302 300 299 298 299 299 298 298 297 297 296 297 297 297 298 300 300 300 300 302 302 303 303 302 301 301 300 299 299 299 299 299 299 299 298
303 302 301 302 299 304 300 302 301 301 298 295 294 301 299 298 296 297 296 296 296 297 298 297 298 298 299 300 301 302 301 301 301 301 300 300 299 299 300 299 298 298 297 297
300 298 301 301 299 300 306 297 299 298 297 299 292 300 296 294 294 295 295 295 295 295 296 296 296 297 297 298 300 300 300 300 300 300 300 300 299 299 298 298 298 298 297 296
300 299 299 299 298 298 301 298 299 296 291 292 292 292 295 292 295 295 294 293 293 293 295 295 294 295 295 297 299 299 299 299 299 299 299 299 299 299 298 298 297 296 295 295
299 297 297 298 297 298 296 295 292 291 288 292 284 289 297 295 296 295 294 292 292 292 293 293 294 294 294 296 297 298 298 299 299 299 299 299 299 298 297 296 295 294 293 292
295 299 296 295 299 297 293 291 291 294 291 295 276 292 299 297 295 295 293 292 290 291 292 291 292 292 293 294 295 295 296 296 296 297 297 297 297 296 295 293 292 291 290 290
290 293 294 294 296 298 296 289 292 288 292 292 278 292 297 295 292 291 291 290 291 291 291 291 292 292 291 291 292 292 292 293 292 292 292 292 291 290 290 289 289 288 288 288
291 294 295 295 293 293 293 290 289 283 273 286 289 290 293 293 290 290 291 291 291 290 290 290 291 291 291 290 290 289 289 289 289 289 289 288 288 288 288 288 287 287 287 287
294 292 288 295 294 291 292 290 292 287 289 288 289 282 295 290 289 289 291 288 288 290 290 290 290 291 290 289 288 289 288 288 288 288 288 287 287 287 287 287 287 286 286 286
288 288 291 293 288 288 290 289 289 288 289 290 288 294 289 285 282 286 286 287 284 285 287 288 290 291 290 289 288 288 287 287 287 287 287 287 286 286 286 286 286 286 285 285
296 292 290 291 291 292 292 290 292 292 287 286 290 292 289 282 276 274 284 286 286 283 284 285 287 289 290 289 290 290 289 287 287 286 286 286 286 286 286 286 286 286 285 285
295 288 287 294 291 290 291 292 289 286 290 289 291 294 282 275 279 278 281 285 284 284 283 283 283 285 288 289 290 291 290 288 286 286 285 285 285 285 285 285 285 284 284 284
295 293 289 292 290 284 290 291 291 289 285 292 292 295 294 291 288 290 290 286 281 281 281 280 280 281 284 288 290 290 290 287 286 285 285 285 285 285 284 284 284 284 284 283
293 289 290 288 284 283 287 289 289 289 290 290 295 286 292 292 288 286 281 279 282 284 285 285 281 281 282 284 288 288 287 286 285 285 285 285 285 284 284 284 284 284 283 283
292 286 283 286 287 289 290 291 291 290 291 285 290 290 278 280 273 280 285 284 282 284 285 287 285 280 281 282 285 286 286 286 285 285 285 285 285 284 284 285 285 284 284 283
287 282 281 286 282 282 287 285 286 285 280 284 286 285 275 283 285 287 287 285 283 285 285 287 285 282 283 284 285 285 286 286 285 285 286 285 285 285 284 284 284 284 284 283
286 278 279 285 277 285 290 286 286 286 286 278 282 283 283 282 281 283 282 280 283 285 286 286 285 283 287 287 286 286 285 285 285 285 285 285 285 285 284 284 284 284 284 283
290 284 281 282 279 286 290 288 289 290 289 287 286 285 285 285 285 286 285 284 285 285 285 285 284 286 286 286 287 285 285 285 284 284 285 285 284 284 283 283 284 283 283 282
288 291 286 276 281 285 289 289 288 287 287 284 285 285 284 284 285 285 284 284 284 284 285 285 285 285 285 286 286 284 285 285 284 285 285 284 283 282 282 282 282 282 282 282
289 290 289 286 283 284 287 287 287 286 287 284 284 283 283 283 283 283 283 283 283 283 284 284 285 284 284 286 285 284 285 284 285 285 284 283 282 282 281 281 281 281 281 281
287 286 283 281 283 287 285 287 287 285 284 283 282 282 282 282 282 282 281 282 282 282 283 283 284 284 285 284 283 284 284 285 284 284 283 282 282 281 281 281 281 280 280 279
286 288 284 287 288 285 284 284 284 284 283 282 282 282 281 281 281 281 281 281 281 281 282 282 282 284 284 284 284 283 284 285 284 283 283 282 281 281 281 280 280 279 279 278
285 282 284 284 283 284 283 283 283 282 282 282 281 281 281 281 281 281 281 281 281 281 281 281 281 282 283 283 283 283 284 286 283 282 282 281 280 281 280 280 279 278 277 277
285 281 279 281 282 281 281 282 282 282 281 281 280 280 280 279 280 281 280 280 280 281 280 280 280 280 281 281 281 281 281 281 281 281 281 280 280 280 280 279 278 278 277 277
282 283 284 284 282 282 282 281 281 280 280 280 279 279 279 279 279 279 279 280 280 280 280 279 279 279 279 279 279 280 280 280 280 280 280 279 279 279 279 278 278 277 277 278
Wind_Speed
5 8 4 4 4 2 1 2 3 2 4 5 3 7 13 7 6 7 5 5 4 4 3 5 8 10 11 8 9 11 17 20 19 16 11 10 10 9 8 7 6 5 4 4
6 4 4 4 4 4 5 2 4 5 4 3 6 14 13 8 6 4 5 5 6 3 4 6 9 11 13 12 8 7 11 18 18 14 9 6 3 5 6 5 3 4 3 4
6 3 5 3 6 4 3 2 3 4 7 3 7 7 7 3 3 1 2 3 4 5 4 4 8 9 11 12 9 4 7 14 14 12 8 6 4 3 2 2 3 1 1 2
6 6 4 4 5 4 3 4 3 4 5 3 6 4 7 5 9 5 6 5 4 3 3 3 7 9 12 12 8 1 5 10 11 10 9 7 6 4 3 2 1 1 2 3
3 6 6 8 2 3 2 4 3 3 4 4 8 4 9 5 6 6 7 7 6 4 3 4 6 7 8 9 6 2 6 9 10 9 8 7 5 4 4 4 3 3 4 4
2 1 3 2 2 0 2 1 5 4 3 3 3 3 7 3 2 5 5 7 6 5 4 4 4 6 5 5 4 3 5 8 8 8 8 7 6 4 4 3 3 3 3 3
5 3 3 3 3 2 6 6 4 6 4 4 3 2 9 6 4 3 8 11 8 5 4 4 6 6 5 3 1 2 3 5 5 6 6 6 6 5 5 3 2 2 3 4
3 7 5 6 3 1 5 4 4 5 2 5 3 5 5 2 5 6 7 7 7 4 4 5 9 8 7 4 3 3 4 4 5 4 4 4 3 2 2 1 2 4 6 8
3 4 2 2 2 3 1 4 3 7 1 3 3 7 10 2 5 7 7 6 7 6 6 7 12 11 10 8 7 5 5 5 5 4 3 3 3 2 1 2 4 5 7 9
3 4 1 4 1 4 4 3 4 3 3 5 4 6 5 6 7 9 10 9 8 7 8 9 14 15 14 13 10 9 8 8 7 6 5 4 3 3 3 4 5 6 8 9
4 3 4 2 2 4 2 2 4 3 3 4 2 5 7 6 4 6 7 8 8 10 10 9 17 19 17 16 14 12 11 10 10 8 7 6 5 4 5 5 6 7 8 10
1 4 3 8 2 2 2 5 4 4 5 2 1 7 3 6 4 3 9 10 9 7 9 15 19 22 22 22 21 20 16 15 13 11 10 8 7 6 6 6 7 8 10 11
3 2 4 9 3 3 2 4 3 3 2 7 3 6 1 2 6 6 8 12 11 10 11 10 16 18 23 27 26 24 21 20 16 14 11 10 8 8 7 8 8 10 11 13
2 2 7 6 7 3 4 4 5 5 3 4 8 21 17 12 12 16 16 10 10 11 11 9 12 18 23 30 31 27 24 21 17 15 13 12 10 9 9 9 9 10 11 13
3 4 1 5 5 3 5 10 8 10 10 5 23 5 16 14 9 9 8 10 11 13 14 14 9 17 24 28 32 28 26 22 18 16 15 14 11 12 12 10 11 12 14 15
2 2 2 5 3 3 6 17 8 12 10 8 16 18 2 6 5 7 12 10 11 13 15 20 19 21 24 26 28 27 27 24 18 17 16 14 15 15 15 13 13 15 18 19
3 4 3 5 4 7 7 8 5 3 5 6 4 6 4 6 10 14 15 12 12 16 17 19 20 24 29 23 22 25 25 23 22 20 19 18 18 19 19 18 18 19 20 21
5 4 2 3 4 1 6 3 4 7 6 5 7 7 8 7 7 11 7 7 11 16 18 22 27 30 29 19 20 20 19 19 22 21 20 20 21 20 20 21 22 23 23 23
2 4 1 1 2 8 6 2 4 2 0 7 5 7 9 12 11 5 5 9 19 23 29 29 33 35 29 21 20 18 16 17 19 21 21 20 19 19 18 20 21 22 24 26
0 3 3 3 3 5 3 1 1 3 3 6 6 10 13 14 12 12 18 25 25 29 31 31 35 32 31 31 21 21 21 20 23 24 23 19 16 17 18 19 21 24 26 28
3 2 6 4 5 9 4 5 1 4 4 10 7 9 10 7 7 17 22 21 28 29 30 33 34 29 32 36 29 23 25 24 25 24 21 17 16 17 18 21 23 25 27 27
6 7 5 2 1 8 5 3 3 3 5 7 7 6 10 12 14 15 16 18 24 26 29 32 30 30 33 32 29 28 28 32 26 23 20 19 18 18 18 20 24 26 27 28
3 6 4 8 4 1 5 8 1 3 4 6 8 11 11 14 16 16 14 21 26 30 33 30 29 31 31 27 31 26 33 37 28 23 23 21 18 17 17 19 23 25 24 24
4 3 2 2 1 4 5 3 3 5 7 11 12 12 13 16 18 18 16 22 26 30 32 32 30 30 31 25 29 31 36 36 32 26 25 22 19 19 19 20 21 23 22 20
3 3 3 4 1 2 3 4 7 10 13 13 20 18 16 12 17 19 14 23 26 29 32 32 29 28 31 32 31 30 32 31 26 26 25 24 21 20 21 23 23 24 27 21
3 3 2 2 3 4 6 6 12 8 11 14 15 16 23 22 18 23 22 26 26 27 32 30 31 29 32 32 33 31 29 28 24 26 28 26 20 22 22 23 29 23 21 21
Wind_Direction
4 65 48 346 334 341 323 291 294 317 9 333 314 291 288 282 264 265 248 237 242 264 292 322 341 343 334 316 295 253 230 219 214 208 213 228 238 242 246 247 252 260 270 291
31 74 335 291 7 62 32 341 316 296 10 345 3 300 279 270 251 220 241 238 241 266 322 330 346 356 359 348 328 268 234 215 208 211 213 217 223 232 238 240 241 244 266 292
86 341 323 53 30 35 47 37 347 257 318 87 322 309 322 332 340 312 202 214 216 225 263 335 346 353 356 355 346 292 222 206 205 205 204 207 218 226 215 171 182 205 303 313
69 328 20 52 71 5 31 334 311 346 28 295 7 288 297 333 307 270 270 252 264 289 345 345 340 347 356 357 358 328 194 196 199 200 203 206 210 206 194 196 209 249 289 311
279 9 17 50 321 340 280 29 34 65 78 42 1 79 273 352 324 357 351 290 264 264 280 314 340 339 348 359 14 95 163 174 184 193 200 208 213 214 218 221 226 242 276 297
125 140 67 221 260 200 284 34 43 56 79 25 291 82 286 290 323 316 306 335 284 253 256 283 309 326 333 359 31 103 153 161 172 181 185 191 197 211 221 236 257 283 313 328
355 2 338 13 319 18 41 45 348 357 12 223 305 11 247 300 294 270 317 320 325 277 278 291 301 306 309 304 334 128 153 149 157 175 179 187 193 196 201 216 257 300 316 318
90 336 8 357 52 323 40 119 145 233 264 275 16 233 241 246 295 310 295 296 313 283 276 274 272 270 268 272 259 213 190 176 171 173 168 166 162 172 183 228 309 322 329 331
63 295 341 13 343 67 286 49 157 99 91 39 278 288 309 324 34 8 338 345 342 307 281 267 265 254 250 242 237 228 216 202 193 190 181 182 186 199 252 306 322 325 325 325
182 353 269 294 6 41 120 153 33 9 340 306 305 274 243 326 331 341 1 351 320 293 270 256 257 253 244 237 232 229 228 225 219 216 213 218 226 246 270 293 302 312 318 319
132 97 289 27 176 184 27 18 43 118 131 199 269 255 214 219 227 286 318 311 299 300 293 284 275 265 252 243 238 238 239 236 233 231 231 233 246 262 280 292 300 306 312 314
186 136 257 228 137 143 167 190 166 128 268 234 193 270 190 215 235 228 297 295 294 278 287 289 284 273 251 241 238 239 240 240 237 236 240 246 254 262 275 284 293 301 307 309
174 322 356 338 22 7 206 205 146 116 80 211 150 260 29 337 310 270 271 301 305 300 301 295 292 273 255 245 240 238 238 239 236 237 242 246 252 262 273 283 292 297 301 302
118 150 177 203 215 143 263 207 193 148 148 237 223 272 289 318 341 335 326 312 304 297 293 293 295 278 263 250 244 241 239 236 235 237 240 246 251 261 271 280 286 290 291 295
111 201 279 260 238 216 253 254 204 199 229 215 276 258 286 316 314 289 289 294 311 316 318 311 292 290 282 262 247 242 237 233 232 236 239 247 258 264 265 267 280 289 293 298
30 240 110 294 340 297 268 266 238 233 251 259 279 282 329 254 297 309 313 311 315 313 313 316 312 294 287 271 253 248 242 236 232 237 241 250 256 262 261 265 279 290 294 296
104 128 77 261 343 330 303 247 174 203 217 163 221 248 278 334 340 328 311 319 313 314 309 317 315 300 301 286 261 256 250 242 236 246 249 250 257 262 264 267 277 285 291 295
131 96 101 270 4 50 242 150 148 206 260 227 301 299 307 284 256 269 280 270 306 320 323 319 313 304 308 281 264 262 255 248 245 247 249 257 259 264 271 273 274 280 286 290
171 121 43 163 226 298 298 166 136 160 34 6 295 317 317 319 304 299 338 333 321 313 310 310 306 309 296 273 265 250 245 246 247 248 254 263 269 272 274 274 278 283 285 290
40 75 126 79 149 255 249 126 138 114 252 355 354 341 335 341 334 322 328 318 313 312 310 309 310 306 298 279 258 249 257 257 254 254 259 269 272 275 278 282 285 287 289 292
141 199 223 199 244 282 278 290 286 82 308 351 353 330 331 321 283 294 303 309 313 313 310 312 312 302 293 289 279 268 268 260 264 264 268 269 274 280 286 290 289 291 291 291
174 160 207 129 228 279 335 41 90 340 327 324 323 289 297 289 291 296 305 307 311 308 311 312 310 305 300 295 284 266 268 275 270 265 264 269 275 279 287 292 296 296 295 294
283 201 181 186 216 34 24 87 43 287 264 276 285 296 292 294 297 301 302 308 312 311 310 312 311 302 296 297 296 282 277 284 271 261 262 267 272 278 289 293 294 293 289 283
240 162 206 70 43 103 120 190 237 255 267 295 296 295 301 299 303 301 303 304 305 308 307 312 314 308 302 304 301 287 282 283 270 261 262 266 268 280 291 296 293 288 274 266
210 103 178 264 352 16 292 329 306 314 308 303 302 289 289 296 297 299 300 301 301 305 308 312 310 307 304 307 307 304 295 289 270 263 266 266 268 282 292 294 292 289 283 268
182 196 167 214 210 201 272 276 280 273 292 299 308 308 308 307 306 307 301 306 305 306 310 306 307 309 310 313 309 308 314 308 282 272 270 270 279 288 290 293 298 287 272 275